Location: Drummondville
(45.8830°N, 72.4830°W)
Time: 13:12:48
(UTC-05:00)

Vanguard 1 Rocket - Visible Passes

Search period start: 17 January 2018 00:00
Search period end: 27 January 2018 00:00
Orbit: 656 x 4222 km, 34.3° (Epoch: 16 January)

Date Brightness Start Highest point End Pass type
(mag) Time Alt. Az. Time Alt. Az. Time Alt. Az.
17 Jan 11.1 05:10:43 10° S 05:14:46 12° SSE 05:18:10 10° SE visible
18 Jan 10.5 06:21:07 10° SSW 06:29:28 21° SSE 06:35:02 10° ESE visible
19 Jan 10.9 05:09:37 10° SSW 05:17:54 18° SSE 05:23:48 10° ESE visible
20 Jan 11.2 03:59:44 10° S 04:05:59 13° SSE 04:11:01 10° SE visible
20 Jan 10.2 06:22:24 10° SW 06:32:36 27° SSE 06:38:55 10° ESE visible
21 Jan 10.6 05:09:56 10° SSW 05:21:00 24° SSE 05:28:08 10° ESE visible
22 Jan 11.0 03:58:21 10° S 04:09:01 19° SSE 04:16:32 10° ESE visible
22 Jan 10.0 06:24:02 10° SW 06:35:43 33° S 06:42:31 10° ESE visible
23 Jan 11.3 02:48:52 10° S 02:56:43 14° SSE 03:03:02 10° ESE visible
23 Jan 10.4 05:10:52 10° SW 05:24:04 30° SSE 05:32:00 10° ESE visible
24 Jan 10.7 03:58:17 10° SSW 04:12:00 25° SSE 04:20:53 10° ESE visible
24 Jan 9.8 06:25:55 10° SW 06:38:48 38° S 06:46:00 10° ESE visible
25 Jan 11.1 02:46:59 10° S 02:59:36 20° SSE 03:08:41 10° ESE visible
25 Jan 10.2 05:12:11 10° SW 05:27:05 36° SSE 05:35:37 10° ESE visible
26 Jan 11.4 01:41:28 12° SSE 01:46:58 13° SE 01:53:59 10° ESE visible
26 Jan 10.5 03:58:55 10° SSW 04:14:56 31° SSE 04:24:45 10° ESE visible
26 Jan 9.7 06:27:59 10° WSW 06:41:51 42° S 06:49:22 10° ESE visible
